Weather History for Branson, MO

Change the Weather History Date:

Thursday, December 13, 2012

  Actual Average (KHRO) Record (KHRO)
Temperature  
Mean Temperature 46 °F 38 °F  
Max Temperature 60 °F 48 °F 73 °F (1948)
Min Temperature 32 °F 29 °F 8 °F (1962)
Degree Days  
Heating Degree Days 19 27  
Month to date heating degree days 325  
Since 1 July heating degree days 1089  
Cooling Degree Days 0 0  
Month to date cooling degree days 0  
Year to date cooling degree days 1416  
Moisture  
Dew Point 19 °F    
Average Humidity 46    
Maximum Humidity 65    
Minimum Humidity 19    
Precipitation  
Precipitation 0.00 in 0.11 in 3.85 in (1927)
Month to date precipitation 1.49  
Year to date precipitation 42.43  
Snow  
Snow 0.00 in 0.00 in 3.50 in (2003)
Month to date snowfall 0.0  
Since 1 July snowfall 0.5  
Snow Depth -    
Sea Level Pressure  
Sea Level Pressure 30.23 in    
Wind  
Wind Speed 6 mph (SSE)    
Max Wind Speed 10 mph    
Max Gust Speed -    
Visibility 10 miles    
Events      
T = Trace of Precipitation, MM = Missing Value Source: NWS Daily Summary

Daily Weather History Graph

Daily Weather History Graph

Search for Another Location

Airport:

Trip Planner

Search our weather history database for the weather conditions in past years. The results will help you decide how hot, cold, wet, or windy it might be!

Date:

Astronomy

Dec. 13, 2012 Rise Set
Actual Time 7:16 AM CST 4:58 PM CST
Civil Twilight 6:47 AM CST 5:26 PM CST
Nautical Twilight 6:15 AM CST 5:59 PM CST
Astronomical Twilight 5:44 AM CST 6:30 PM CST
Moon 7:26 AM CST (12/13) 5:40 PM CST (12/13)
Length of Visible Light 10h 39m
Length of Day
9h 41m
Waxing Crescent, 0% of the Moon is Illuminated
Dec 13
Waxing Crescent
Dec 19
First Quarter
Dec 28
Full
Jan 4
Last Quarter
Jan 11
New

Hourly Weather History & Observations

Time (CST) Temp. Windchill Dew Point Humidity Pressure Visibility Wind Dir Wind Speed Gust Speed Precip Events Conditions
12:15 AM 35.6 °F 28.0 °F 15.8 °F 44% 30.25 in 10.0 mi SSE 10.4 mph - N/A   Clear
12:35 AM 35.6 °F 31.7 °F 14.0 °F 41% 30.26 in 10.0 mi SSE 4.6 mph - N/A   Clear
12:55 AM 35.6 °F 31.7 °F 15.8 °F 44% 30.27 in 10.0 mi SSE 4.6 mph - N/A   Clear
1:15 AM 35.6 °F 30.7 °F 14.0 °F 41% 30.27 in 10.0 mi SSE 5.8 mph - N/A   Clear
1:35 AM 35.6 °F 31.7 °F 15.8 °F 44% 30.27 in 10.0 mi SSE 4.6 mph - N/A   Clear
1:55 AM 32.0 °F 26.4 °F 15.8 °F 51% 30.28 in 10.0 mi SSE 5.8 mph - N/A   Clear
2:15 AM 33.8 °F 29.6 °F 15.8 °F 48% 30.28 in 10.0 mi SSE 4.6 mph - N/A   Clear
2:35 AM 32.0 °F 26.4 °F 15.8 °F 51% 30.28 in 10.0 mi SSE 5.8 mph - N/A   Clear
3:15 AM 32.0 °F 26.4 °F 15.8 °F 51% 30.27 in 10.0 mi SE 5.8 mph - N/A   Clear
3:35 AM 32.0 °F 25.6 °F 17.6 °F 55% 30.27 in 10.0 mi SE 6.9 mph - N/A   Clear
3:55 AM 32.0 °F 27.5 °F 15.8 °F 51% 30.26 in 10.0 mi SSE 4.6 mph - N/A   Clear
4:35 AM 32.0 °F 26.4 °F 17.6 °F 55% 30.26 in 10.0 mi SE 5.8 mph - N/A   Clear
4:55 AM 32.0 °F 25.6 °F 17.6 °F 55% 30.26 in 10.0 mi SE 6.9 mph - N/A   Clear
5:15 AM 32.0 °F 26.4 °F 15.8 °F 51% 30.26 in 10.0 mi SE 5.8 mph - N/A   Clear
5:35 AM 32.0 °F 26.4 °F 15.8 °F 51% 30.26 in 10.0 mi SE 5.8 mph - N/A   Clear
6:45 AM 32.0 °F 26.4 °F 17.6 °F 55% 30.26 in 10.0 mi SE 5.8 mph - N/A   Clear
8:45 AM 35.6 °F 29.9 °F 17.6 °F 48% 30.28 in 10.0 mi SE 6.9 mph - N/A   Clear
9:47 AM 41.0 °F 35.8 °F 19.4 °F 42% 30.28 in 10.0 mi SE 8.1 mph - N/A   Clear
10:45 AM 48.2 °F - 19.4 °F 32% 30.27 in 10.0 mi SE 8.1 mph - N/A   Clear
11:45 AM 53.6 °F - 17.6 °F 24% 30.25 in 10.0 mi SSE 6.9 mph - N/A   Clear
12:55 PM 59.0 °F - 17.6 °F 20% 30.23 in 10.0 mi South 5.8 mph - N/A   Clear
1:50 PM 59.0 °F - 19.4 °F 22% 30.21 in 10.0 mi ESE 4.6 mph - N/A   Clear
2:45 PM 60.8 °F - 17.6 °F 19% 30.20 in 10.0 mi SSW 6.9 mph - N/A   Clear
3:50 PM 59.0 °F - 17.6 °F 20% 30.19 in 10.0 mi SSW 5.8 mph - N/A   Clear
5:45 PM 50.0 °F - 21.2 °F 32% 30.17 in 10.0 mi SSE 9.2 mph - N/A   Clear
7:45 PM 44.6 °F 40.7 °F 23.0 °F 43% 30.17 in 10.0 mi SSE 6.9 mph - N/A   Clear
8:15 PM 42.8 °F 38.6 °F 23.0 °F 46% 30.18 in 10.0 mi SSE 6.9 mph - N/A   Clear
8:35 PM 42.8 °F 38.6 °F 23.0 °F 46% 30.17 in 10.0 mi SE 6.9 mph - N/A   Clear
8:45 PM 41.0 °F 36.4 °F 23.0 °F 49% 30.17 in 10.0 mi SE 6.9 mph - N/A   Clear
8:55 PM 41.0 °F 36.4 °F 23.0 °F 49% 30.17 in 10.0 mi SE 6.9 mph - N/A   Clear
9:15 PM 39.2 °F 35.0 °F 23.0 °F 52% 30.17 in 10.0 mi SSE 5.8 mph - N/A   Clear
9:35 PM 41.0 °F 38.0 °F 23.0 °F 49% 30.18 in 10.0 mi SSE 4.6 mph - N/A   Clear
9:55 PM 39.2 °F 35.9 °F 23.0 °F 52% 30.19 in 10.0 mi SSE 4.6 mph - N/A   Clear
10:15 PM 39.2 °F 35.9 °F 23.0 °F 52% 30.20 in 10.0 mi SSE 4.6 mph - N/A   Clear
10:35 PM 37.4 °F 34.9 °F 24.8 °F 60% 30.20 in 10.0 mi SSE 3.5 mph - N/A   Clear
10:55 PM 37.4 °F 32.8 °F 24.8 °F 60% 30.19 in 10.0 mi SSE 5.8 mph - N/A   Clear
11:15 PM 39.2 °F 34.2 °F 24.8 °F 56% 30.19 in 10.0 mi SE 6.9 mph - N/A   Clear
11:35 PM 35.6 °F 32.8 °F 24.8 °F 65% 30.18 in 10.0 mi SE 3.5 mph - N/A   Clear
11:55 PM 35.6 °F 31.7 °F 24.8 °F 65% 30.19 in 10.0 mi SE 4.6 mph - N/A   Clear